Miscellaneous Local Product
Issued by NWS Hastings, NE

Home | Current Version | Previous Version | Graphics & Text | Print | Product List | Glossary On
Versions: 1 2 3 4 5 6 7 8 9 10 11 12 13 14 15 16 17 18 19 20 21 22 23 24 25 26 27 28 29 30 31 32 33 34 35 36 37 38 39 40 41 42 43 44 45 46 47 48 49 50
000
AXUS43 KGID 281402
MISGRI

GID CWA HOURLY WEATHER ROUNDUP
NATIONAL WEATHER SERVICE HASTINGS NE
900 AM CDT THU AUG 28 2014

NOTE: "FAIR" INDICATES FEW OR NO CLOUDS BELOW 12,000 FEET WITH NO
SIGNIFICANT WEATHER AND/OR OBSTRUCTIONS TO VISIBILITY.

...SOUTH CENTRAL NEBRASKA...

CITY           SKY/WX    TMP DP  RH WIND       PRES   REMARKS
GRAND ISLAND   CLOUDY    70  68  93 SE5       29.92R
HASTINGS       PTSUNNY   71  66  84 S9        29.89S
KEARNEY        CLOUDY    68  66  94 S7        29.94R
ORD            LGT RAIN  68  66  93 CALM      29.93S
YORK           MOSUNNY   72 N/A N/A S13       29.89F
AURORA         CLOUDY    70  70 100 SE7       29.90R
LEXINGTON      MOSUNNY   67  65  92 CALM      29.95S
HOLDREGE       CLOUDY    65  64  95 W5G17     29.95R FOG
HEBRON         PTSUNNY   71  66  84 S9        29.91F

...NEBRASKA PANHANDLE...

CITY           SKY/WX    TMP DP  RH WIND       PRES   REMARKS
CHADRON        CLOUDY    64  62  93 NW8       30.01R
ALLIANCE       CLOUDY    63  60  90 NW10      30.02R
SCOTTSBLUFF    CLOUDY    62  60  93 W9        30.05S
SIDNEY         SUNNY     62  54  74 NW12      30.07R

...WESTERN AND NORTH CENTRAL NEBRASKA...

CITY           SKY/WX    TMP DP  RH WIND       PRES   REMARKS
VALENTINE      PTSUNNY   70  68  93 E7        29.92F FOG
AINSWORTH      CLOUDY    67  67 100 CALM      29.92F FOG
ONEILL         CLOUDY    70  69  97 SE9       29.93R
BROKEN BOW     CLOUDY    67  65  93 CALM      29.95R FOG
IMPERIAL       SUNNY     65  61  87 NW6       30.00R
NORTH PLATTE   MOSUNNY   67  62  84 W7        29.98R
MCCOOK         SUNNY     65  62  90 W8        29.98S

...EASTERN NEBRASKA...

CITY           SKY/WX    TMP DP  RH WIND       PRES   REMARKS
NORFOLK        CLOUDY    70  67  90 SE9       29.92S
SO SIOUX CITY  CLOUDY    69  68  96 SE7       29.94S
TEKAMAH        CLOUDY    71  68  90 SE14      29.93S
COLUMBUS       CLOUDY    70  66  88 E9        29.92S
ALBION         CLOUDY    68  66  93 SE3       29.93R
OMAHA EPPLEY   CLOUDY    71  68  90 SE10      29.95F
OFFUTT AFB     CLOUDY    70  70 100 E12       29.96F
MILLARD        PTSUNNY   72  69  92 SE7       29.94F
LINCOLN        PTSUNNY   73  70  90 SE12      29.92F
NEBRASKA CITY  HVY RAIN  71  71 100 SW3       29.98R
BEATRICE       LGT RAIN  72  71  96 SE8       29.95F
FALLS CITY     LGT RAIN  74  73  97 E3        29.97S

...NORTHERN KANSAS...

CITY           SKY/WX    TMP DP  RH WIND       PRES   REMARKS
GOODLAND       SUNNY     63  60  90 NW9       30.04S
HILL CITY      CLOUDY    69  67  93 NW5       29.92R
NORTON         CLOUDY    63  61  94 NW8       29.94S
PHILLIPSBURG   RAIN      70  70 100 SE6       29.90S
SMITH CENTER   SUNNY     72  68  88 SE14      29.90F
BELOIT         SUNNY     73  68  83 SE8       29.91S
HAYS           SUNNY     72  64  78 SE8       29.91F
RUSSELL        MOSUNNY   76  67  73 SE21      29.90F
CONCORDIA      PTSUNNY   70  69  97 SE9       29.92F
SALINA         PTSUNNY   74  70  87 SE6       29.96R
TOPEKA         PTSUNNY   82  70  66 SW7       29.97R



USA.gov is the U.S. government's official web portal to all federal, state and local government web resources and services.